Wind_Speed
46 46 46 46 44 43 41 40 38 37 36 37 37 37 37 36 36 37 37 37 37 37 37 37 37 38 40 41 42 43 43 42 42 42 44 46 48 50 51 53 52 51
48 47 47 47 46 46 45 44 43 41 40 39 39 39 39 39 39 39 39 39 39 40 40 40 39 39 40 41 42 43 44 44 44 43 44 44 46 49 50 52 52 53
49 48 48 48 47 47 47 46 46 46 45 44 43 42 42 42 42 42 42 42 41 42 42 42 41 41 40 41 41 42 44 45 45 45 45 45 46 48 50 51 51 52
49 50 50 50 49 49 49 49 48 48 48 47 47 47 46 45 45 45 45 44 44 44 44 44 44 44 43 42 42 42 43 44 46 46 46 46 47 48 50 51 51 52
48 49 50 50 51 51 51 51 50 50 49 49 49 50 49 49 49 48 48 48 47 47 46 46 46 46 46 46 44 43 43 43 45 47 48 48 48 48 49 50 51 52
49 50 51 51 51 52 52 52 52 51 52 51 51 51 51 51 51 51 51 51 50 50 49 49 48 49 49 49 49 47 46 44 44 46 48 49 50 50 50 51 51 51
53 53 52 50 50 50 49 51 52 53 54 54 53 54 54 54 54 54 54 53 53 53 52 52 52 52 51 52 52 51 50 49 47 46 47 48 50 51 52 52 52 52
52 53 53 52 52 50 48 50 52 52 52 53 54 55 57 58 58 57 57 56 56 55 55 55 55 54 54 54 53 53 53 53 52 51 49 49 49 51 52 53 54 54
55 57 58 58 57 55 52 52 51 51 51 52 53 55 56 59 60 60 60 59 59 59 59 58 58 58 57 56 56 56 56 56 56 56 55 53 52 52 52 53 54 55
61 63 63 61 60 60 59 56 54 53 53 55 57 57 59 60 60 61 61 61 61 62 62 61 60 60 60 60 59 59 59 59 58 58 58 58 57 57 56 55 55 56
61 62 62 60 59 59 59 58 56 51 47 50 55 56 59 62 63 63 63 64 63 63 64 63 62 62 62 63 63 62 62 61 61 60 60 60 60 60 60 59 59 58
58 59 61 59 57 56 54 55 57 52 44 43 46 50 53 57 59 61 62 64 66 66 65 65 64 64 64 64 64 64 64 64 64 63 63 63 63 63 63 63 63 62
55 57 59 59 57 56 54 54 55 55 51 46 42 43 48 51 53 56 58 61 63 65 66 66 66 66 67 68 68 67 66 66 65 66 66 65 66 66 66 66 66 65
55 56 58 57 56 55 54 53 53 54 56 54 48 45 46 47 48 53 59 62 62 61 63 65 65 65 66 68 69 68 68 67 66 67 68 69 69 69 69 69 68 67
56 56 57 57 57 55 53 52 53 53 54 58 60 57 54 48 43 46 54 59 59 58 58 59 62 64 66 68 69 69 69 69 68 68 69 70 71 72 72 72 71 70
59 58 58 58 58 56 54 54 54 54 55 58 62 63 60 52 47 48 53 56 58 59 60 61 62 64 66 69 72 72 71 70 70 70 70 71 72 73 73 73 74 73
61 60 60 60 59 57 57 57 56 57 58 60 62 63 62 59 58 60 62 64 65 65 65 66 66 65 65 68 71 73 73 72 72 72 72 72 73 74 74 75 75 76
64 63 62 62 62 61 60 60 60 60 60 62 64 66 68 69 70 72 72 71 69 67 66 66 67 66 66 68 70 72 73 73 73 73 73 72 72 74 76 76 76 76
66 66 66 66 66 65 64 65 64 64 64 65 66 68 70 72 74 76 75 73 71 68 66 65 66 66 67 69 70 71 71 72 72 72 72 72 72 73 75 76 77 78
69 68 69 69 69 68 68 68 68 68 69 69 69 70 71 72 74 75 75 74 71 69 67 67 68 68 69 70 71 71 72 72 72 73 72 72 73 73 73 75 76 76
70 71 71 71 71 71 71 71 71 71 72 72 73 73 74 74 74 75 75 74 72 70 69 71 72 72 72 72 72 73 74 75 75 75 75 76 77 77 77 77 77 77
71 72 72 72 72 72 72 72 72 72 73 74 75 76 76 75 75 75 75 74 73 71 72 74 75 76 75 74 73 74 75 77 77 77 78 79 80 80 80 81 82 82
72 73 73 73 73 73 73 73 73 73 74 74 75 76 76 76 75 74 74 73 71 71 73 76 77 78 77 76 75 76 77 78 79 79 79 80 80 80 80 81 83 84
73 73 74 74 74 74 74 74 75 75 75 75 75 76 76 75 74 74 72 70 69 70 74 76 78 78 77 77 77 78 78 79 80 81 81 81 80 81 81 82 83 84
74 74 75 75 75 75 75 75 76 77 77 77 77 76 76 75 74 73 71 69 69 71 73 75 77 77 77 78 78 78 79 79 80 81 81 81 82 83 83 84 85 85
75 75 76 76 76 76 77 77 78 78 79 79 78 78 77 75 74 73 72 70 70 71 72 74 76 77 78 78 79 78 78 79 80 80 81 81 82 83 84 85 85 86
Wind_Direction
261 261 262 263 262 260 259 258 256 254 251 249 246 244 244 245 245 244 242 242 243 244 245 244 244 243 243 244 245 245 246 246 247 246 246 245 245 245 245 244 244 242
262 261 261 261 262 261 260 259 258 256 254 253 251 249 247 246 247 247 246 245 244 244 244 244 243 243 243 244 244 244 244 244 245 245 245 245 245 245 245 245 245 244
264 263 262 261 261 261 260 259 259 258 256 255 254 253 251 250 249 248 248 248 248 247 246 245 244 244 244 244 245 245 245 244 243 243 243 243 244 244 244 245 245 245
264 263 262 261 260 260 259 259 258 258 258 257 256 255 254 253 252 251 250 249 249 249 249 248 247 246 245 244 245 245 245 245 244 243 243 242 242 242 242 243 244 245
264 262 261 261 260 258 258 258 258 258 259 259 258 257 256 255 254 253 252 251 250 250 249 249 249 248 247 246 245 244 244 244 244 244 244 243 242 242 241 242 243 243
262 261 261 261 258 257 257 258 258 258 258 259 259 259 258 257 256 255 254 253 252 251 251 250 249 249 249 248 247 246 245 244 244 245 245 245 245 244 243 242 242 242
262 260 261 260 257 257 258 259 259 258 258 259 259 259 259 259 258 257 256 255 255 254 252 252 251 250 250 249 248 248 247 246 245 245 246 246 246 246 245 244 243 243
260 258 259 259 259 260 259 259 260 259 259 260 260 261 261 261 260 259 258 257 256 256 255 253 253 252 251 251 251 250 249 248 247 246 246 246 247 247 246 246 245 244
256 258 260 260 262 262 260 259 259 259 261 262 262 262 262 262 262 260 259 258 257 257 256 255 254 254 253 252 251 251 250 249 248 247 247 246 246 247 247 247 247 247
256 259 261 262 262 262 261 260 260 261 264 265 264 264 263 262 262 262 261 260 258 258 257 256 256 255 254 253 252 251 250 250 249 249 248 247 247 247 247 247 247 247
258 259 260 261 261 260 261 261 260 261 265 268 267 265 264 263 261 262 262 261 260 259 258 257 256 256 255 254 253 252 251 250 250 249 249 249 248 248 248 247 247 247
258 258 258 256 256 258 259 259 259 257 255 260 265 266 266 265 263 262 262 262 261 260 259 258 257 257 257 256 255 254 252 251 251 250 250 250 250 249 249 248 248 248
258 258 258 256 255 255 255 255 257 254 248 248 256 261 263 264 264 264 264 264 262 261 261 260 259 259 259 258 256 255 253 252 251 251 251 251 251 250 250 249 249 248
259 258 259 259 257 255 254 251 251 251 248 245 246 249 254 258 262 262 262 261 260 261 261 260 259 260 259 259 258 256 255 253 252 252 253 252 251 251 250 250 250 250
261 260 259 260 258 256 254 251 248 247 246 244 244 246 249 250 251 253 256 257 257 259 260 260 259 259 260 260 260 259 257 255 254 254 254 253 253 252 252 251 251 251
263 262 261 260 260 259 256 253 249 246 244 243 243 245 246 242 239 242 250 256 259 260 263 264 263 263 263 263 263 262 260 259 258 257 256 255 254 254 254 253 252 251
264 264 264 263 263 262 259 257 254 250 247 245 244 243 243 242 241 245 252 258 261 261 263 264 264 264 265 265 264 264 263 262 261 260 259 257 256 256 256 255 253 252
266 266 265 265 264 263 262 260 258 255 252 250 248 246 245 246 248 252 255 257 258 258 260 262 263 263 262 263 263 264 263 263 262 261 260 259 258 257 256 255 254 253
266 266 266 265 265 264 263 262 261 260 257 255 253 251 250 251 252 254 255 255 255 256 256 257 260 261 260 261 262 262 263 263 262 262 261 261 259 258 257 256 255 254
265 265 264 265 264 264 263 263 262 262 261 260 258 257 256 255 255 256 257 257 257 257 257 256 256 256 257 258 260 261 262 262 262 261 262 262 261 259 259 259 258 256
265 264 264 264 263 263 263 263 262 262 262 262 261 260 259 259 259 259 260 260 260 259 259 258 257 256 255 255 257 258 260 261 261 261 261 262 262 262 261 261 261 260
265 265 265 264 264 264 263 263 262 262 261 261 262 261 261 260 260 260 261 262 262 261 261 260 260 258 257 256 256 257 258 259 260 261 261 261 262 262 263 263 263 263
266 266 266 265 265 265 264 264 263 262 261 261 260 261 261 261 261 260 261 261 262 263 262 261 260 260 259 258 258 257 257 258 258 258 259 260 261 262 262 263 263 263
268 268 267 266 266 266 265 265 265 264 263 263 262 261 261 261 261 261 260 261 262 262 263 262 262 261 260 260 259 258 257 257 257 257 257 258 258 259 260 260 261 261
267 267 267 267 267 267 266 266 266 266 265 265 265 264 264 263 262 262 261 261 260 260 261 262 263 263 261 260 259 259 258 258 258 257 257 257 256 257 257 258 258 259
266 266 266 267 267 267 267 267 266 266 266 266 266 266 266 266 265 265 264 262 261 260 260 260 261 262 262 261 261 260 259 259 258 258 258 257 257 256 257 257 257 258
Height
10567 10567 10567 10567 10568 10569 10570 10571 10572 10573 10574 10574 10575 10576 10576 10577 10577 10578 10578 10579 10579 10580 10581 10581 10582 10583 10583 10584 10585 10586 10587 10588 10589 10591 10592 10593 10595 10597 10599 10601 10603 10605
10561 10561 10561 10561 10562 10563 10564 10565 10567 10568 10569 10569 10570 10571 10572 10572 10573 10573 10574 10574 10575 10575 10576 10577 10578 10578 10579 10579 10580 10581 10582 10583 10584 10586 10587 10589 10590 10592 10594 10596 10598 10600
10555 10555 10555 10555 10556 10557 10558 10559 10560 10561 10562 10563 10564 10565 10566 10567 10568 10568 10569 10570 10571 10571 10572 10573 10574 10575 10575 10576 10576 10577 10577 10578 10579 10580 10582 10583 10585 10587 10589 10591 10592 10594
10549 10549 10549 10549 10550 10551 10551 10552 10553 10554 10556 10557 10558 10559 10560 10561 10562 10563 10564 10564 10565 10566 10567 10568 10569 10570 10571 10572 10572 10573 10573 10574 10575 10576 10577 10578 10580 10581 10583 10585 10587 10589
10542 10542 10543 10544 10544 10544 10544 10545 10547 10549 10550 10550 10551 10552 10553 10555 10556 10557 10557 10559 10560 10561 10562 10564 10565 10566 10566 10567 10567 10568 10569 10570 10571 10571 10572 10573 10575 10576 10578 10579 10581 10583
10535 10536 10536 10537 10537 10537 10538 10540 10542 10542 10543 10544 10545 10546 10547 10549 10550 10551 10551 10553 10554 10556 10557 10558 10559 10559 10560 10561 10562 10563 10564 10566 10567 10567 10568 10569 10570 10571 10572 10574 10575 10577
10529 10529 10530 10531 10530 10532 10535 10535 10535 10536 10537 10539 10540 10540 10541 10542 10543 10544 10545 10546 10548 10549 10551 10552 10553 10553 10554 10555 10556 10558 10559 10560 10562 10563 10563 10564 10565 10566 10567 10568 10569 10570
10522 10521 10523 10523 10523 10527 10530 10529 10529 10530 10532 10533 10534 10534 10534 10535 10535 10536 10538 10540 10541 10542 10543 10544 10546 10547 10548 10550 10551 10552 10553 10555 10555 10556 10557 10558 10558 10559 10560 10561 10563 10564
10514 10513 10514 10515 10517 10520 10522 10522 10523 10525 10527 10528 10527 10527 10527 10526 10527 10528 10529 10532 10533 10534 10535 10537 10538 10540 10541 10543 10544 10545 10546 10547 10548 10549 10550 10551 10552 10552 10553 10555 10556 10557
10506 10505 10506 10507 10509 10511 10514 10516 10518 10520 10521 10520 10519 10518 10518 10517 10517 10518 10520 10523 10524 10525 10526 10529 10531 10532 10533 10534 10535 10536 10537 10539 10541 10542 10543 10544 10545 10546 10546 10547 10549 10550
10497 10497 10497 10498 10500 10503 10507 10508 10510 10512 10512 10509 10507 10507 10506 10506 10507 10508 10510 10512 10514 10515 10517 10520 10522 10524 10524 10525 10526 10527 10529 10531 10533 10535 10536 10537 10538 10539 10540 10540 10541 10543
10488 10489 10489 10490 10493 10496 10500 10500 10500 10502 10502 10497 10496 10496 10494 10494 10497 10499 10501 10502 10504 10505 10508 10510 10513 10514 10515 10517 10518 10519 10521 10524 10526 10527 10529 10530 10530 10531 10532 10532 10534 10535
10481 10481 10480 10483 10486 10489 10492 10493 10492 10493 10493 10489 10487 10486 10486 10487 10489 10491 10491 10492 10493 10495 10497 10500 10503 10505 10507 10507 10509 10511 10514 10516 10518 10519 10520 10521 10521 10522 10523 10523 10525 10527
10473 10474 10473 10475 10478 10481 10484 10486 10485 10485 10485 10483 10480 10478 10479 10481 10481 10481 10480 10482 10484 10485 10487 10490 10494 10496 10497 10497 10499 10503 10506 10507 10510 10511 10511 10512 10512 10512 10514 10514 10517 10520
10464 10465 10466 10467 10469 10472 10475 10477 10478 10478 10478 10477 10475 10474 10474 10473 10472 10471 10470 10472 10475 10478 10479 10482 10486 10488 10488 10488 10489 10493 10497 10498 10500 10502 10503 10503 10502 10503 10505 10507 10509 10511
10454 10456 10458 10459 10460 10464 10466 10468 10469 10470 10470 10469 10468 10468 10468 10466 10465 10465 10465 10466 10469 10472 10474 10477 10479 10480 10480 10479 10478 10481 10486 10488 10490 10492 10493 10493 10494 10494 10496 10498 10500 10502
10445 10447 10449 10450 10451 10454 10456 10458 10459 10461 10461 10461 10461 10461 10461 10460 10460 10461 10461 10462 10464 10467 10469 10471 10473 10473 10472 10469 10467 10469 10474 10477 10480 10480 10481 10483 10484 10484 10485 10487 10489 10492
10436 10438 10439 10440 10442 10444 10445 10447 10448 10450 10451 10452 10452 10453 10453 10452 10453 10453 10454 10457 10459 10462 10465 10466 10465 10465 10463 10460 10459 10460 10462 10466 10468 10468 10469 10472 10474 10473 10473 10475 10477 10480
10427 10429 10429 10430 10432 10433 10434 10435 10436 10438 10440 10441 10442 10443 10443 10443 10443 10443 10445 10448 10452 10457 10461 10460 10457 10455 10454 10452 10451 10451 10452 10455 10456 10456 10459 10461 10461 10461 10461 10462 10465 10469
10418 10419 10420 10420 10421 10422 10423 10424 10425 10427 10428 10429 10430 10432 10433 10433 10433 10434 10436 10439 10445 10450 10453 10451 10447 10445 10444 10443 10443 10443 10444 10445 10445 10446 10449 10450 10448 10449 10451 10451 10454 10457
10408 10408 10409 10410 10411 10412 10413 10414 10415 10416 10417 10417 10418 10419 10421 10422 10423 10425 10426 10429 10435 10441 10441 10437 10434 10434 10434 10433 10435 10436 10435 10435 10435 10437 10439 10439 10436 10437 10440 10441 10442 10445
10397 10396 10397 10399 10400 10401 10402 10403 10404 10406 10406 10406 10406 10406 10408 10411 10413 10415 10417 10419 10425 10429 10428 10425 10422 10421 10422 10424 10426 10427 10426 10425 10425 10426 10428 10427 10426 10427 10429 10430 10431 10432
10385 10385 10386 10387 10388 10388 10390 10390 10391 10392 10393 10394 10394 10394 10395 10398 10401 10405 10407 10410 10415 10417 10414 10411 10409 10408 10411 10414 10415 10415 10415 10414 10414 10415 10415 10416 10417 10418 10420 10420 10420 10420
10372 10373 10374 10374 10375 10376 10377 10378 10378 10378 10379 10380 10381 10382 10384 10387 10390 10392 10396 10401 10406 10405 10399 10396 10396 10398 10401 10403 10402 10403 10403 10402 10402 10403 10404 10407 10408 10408 10409 10409 10408 10408
10361 10361 10361 10361 10363 10364 10364 10364 10364 10364 10365 10366 10367 10369 10371 10374 10377 10380 10385 10391 10394 10391 10388 10386 10385 10386 10388 10388 10388 10390 10390 10390 10390 10391 10393 10395 10396 10396 10396 10396 10396 10397
10350 10351 10350 10350 10351 10351 10351 10351 10351 10351 10352 10353 10354 10356 10358 10362 10365 10367 10371 10376 10378 10378 10378 10377 10374 10373 10374 10375 10375 10377 10378 10378 10378 10379 10380 10382 10382 10383 10384 10384 10384 10386